Location: Bosdarros
(43.2167°N, 0.3667°W)
Time: 03:45:22
(UTC+00:00)

BREEZE-M DEB (TANK) - Pass Details

Date: 22 April 2021
Orbit: 289 x 13025 km, 49.6° (Epoch: 15 May)

Event Time Altitude Azimuth Distance (km) Brightness Sun altitude
Rises 19:08:08 0° 254° (WSW) 2,227 6.4 -3.5°
Reaches altitude 10° 19:09:28 10° 258° (WSW) 1,592 5.7 -3.7°
Maximum altitude 19:12:33 67° 342° (NNW) 798 3.3 -4.2°
Drops below altitude 10° 19:21:47 10° 65° (ENE) 4,590 6.6 -5.8°
Sets 19:28:41 0° 68° (ENE) 7,359 7.6 -6.9°
